Location: Cheyres
(46.8153°N, 6.7877°E)
Time: 07:47:42
(UTC+00:00)

Cosmos 990 Rocket - Pass Details

Date: 21 September 2021
Orbit: 746 x 769 km, 74.0° (Epoch: 21 October)

Event Time Altitude Azimuth Distance (km) Brightness Sun altitude
Exits shadow 21:57:58 19° 349° (NNW) 1,734 6.3 -39.1°
Drops below altitude 10° 21:59:51 10° 4° (N) 2,293 7.0 -39.2°
Sets 22:02:32 0° 16° (NNE) 3,226 7.8 -39.5°
